Beckley, WV

4:44 PM EDT on August 19, 2017 (GMT -0400)
Raleigh County Memorial

Weather History for KBKW - January, 2011

Change the Weather History Date:

Friday, January 7, 2011

  Actual Average Record
Temperature  
Mean Temperature 26 °F 31 °F  
Max Temperature 29 °F 39 °F 71 °F (1907)
Min Temperature 22 °F 23 °F -9 °F (2014)
Degree Days  
Heating Degree Days 39 34  
Month to date heating degree days 235 238  
Since 1 July heating degree days 2454 2331  
Cooling Degree Days 0 0  
Month to date cooling degree days 0 0  
Year to date cooling degree days 0 0  
Moisture  
Dew Point 21 °F    
Average Humidity 83    
Maximum Humidity 92    
Minimum Humidity 74    
Precipitation  
Precipitation 0.05 in 0.10 in 1.26 in (1991)
Month to date precipitation 0.41 0.65  
Year to date precipitation 0.41 0.65  
Snow  
Snow 1.60 in - - ()
Month to date snowfall 3.1  
Since 1 September snowfall 50.4  
Snow Depth 3.00 in    
Sea Level Pressure  
Sea Level Pressure 29.40 in    
Wind  
Wind Speed 8 mph (West)    
Max Wind Speed 18 mph    
Max Gust Speed 25 mph    
Visibility 4 miles    
Events Fog , Snow    
T = Trace of Precipitation, MM = Missing Value Source: NWS Daily Summary

Daily Weather History Graph

Daily Weather History Graph

Search for Another Location

Airport or City:

Trip Planner

Search our weather history database for the weather conditions in past years. The results will help you decide how hot, cold, wet, or windy it might be!

Date:

Astronomy

Jan. 07, 2011 Rise Set
Actual Time 7:40 AM EST 5:21 PM EST
Civil Twilight 7:11 AM EST 5:50 PM EST
Nautical Twilight 6:38 AM EST 6:23 PM EST
Astronomical Twilight 6:06 AM EST 6:54 PM EST
Moon 9:26 AM EST (1/7) 8:51 PM EST (1/7)
Length of Visible Light 10h 39m
Length of Day
9h 41m
Waxing Crescent, 11% of the Moon is Illuminated
Jan 7
Waxing Crescent
Jan 12
First Quarter
Jan 19
Full
Jan 26
Last Quarter
Feb 2
New

Hourly Weather History & Observations

Time (EST) Temp. Windchill Dew Point Humidity Pressure Visibility Wind Dir Wind Speed Gust Speed Precip Events Conditions
12:00 AM 28.4 °F 19.7 °F 26.6 °F 93% 29.43 in 0.8 mi West 9.2 mph - 0.00 in Snow Light Snow
12:09 AM 28.4 °F 18.5 °F 26.6 °F 93% 29.43 in 0.2 mi West 11.5 mph - 0.02 in Fog , Snow Heavy Snow
12:16 AM 28.4 °F 19.7 °F 26.6 °F 93% 29.43 in 0.8 mi WNW 9.2 mph 20.7 mph 0.02 in Snow Light Snow
12:23 AM 28.4 °F 18.0 °F 26.6 °F 93% 29.44 in 1.5 mi WNW 12.7 mph 18.4 mph 0.02 in Snow Light Snow
12:32 AM 28.4 °F 17.5 °F 24.8 °F 86% 29.43 in 2.0 mi WNW 13.8 mph 25.3 mph 0.02 in Snow Light Snow
12:43 AM 28.4 °F 17.0 °F 24.8 °F 86% 29.43 in 5.0 mi WNW 15.0 mph 23.0 mph 0.02 in Snow Light Snow
12:51 AM 28.0 °F 16.1 °F 24.1 °F 85% 29.50 in 5.0 mi WNW 16.1 mph 25.3 mph 0.02 in Snow Light Snow
12:57 AM 28.4 °F 17.5 °F 23.0 °F 80% 29.43 in 5.0 mi WNW 13.8 mph 23.0 mph 0.00 in Snow Light Snow
1:27 AM 28.4 °F 17.5 °F 23.0 °F 80% 29.43 in 7.0 mi WNW 13.8 mph 21.9 mph 0.00 in Snow Light Snow
1:51 AM 27.0 °F 15.2 °F 21.0 °F 78% 29.52 in 8.0 mi WNW 15.0 mph 21.9 mph 0.00 in Snow Light Snow
2:11 AM 26.6 °F 15.7 °F 21.2 °F 80% 29.44 in 7.0 mi WNW 12.7 mph - 0.00 in Snow Light Snow
2:51 AM 25.0 °F 13.1 °F 19.9 °F 81% 29.54 in 8.0 mi WNW 13.8 mph - 0.00 in   Overcast
3:41 AM 24.8 °F 14.0 °F 19.4 °F 80% 29.46 in 4.0 mi WNW 11.5 mph 19.6 mph 0.00 in Snow Light Snow
3:51 AM 24.1 °F 12.0 °F 18.0 °F 77% 29.55 in 4.0 mi WNW 13.8 mph 21.9 mph 0.00 in Snow Light Snow
4:51 AM 23.0 °F 12.4 °F 17.1 °F 78% 29.54 in 6.0 mi West 10.4 mph - 0.00 in Snow Light Snow
5:17 AM 23.0 °F 14.7 °F 17.6 °F 80% 29.45 in 8.0 mi WNW 6.9 mph - 0.00 in Snow Light Snow
5:51 AM 21.9 °F 12.5 °F 17.1 °F 82% 29.54 in 6.0 mi WNW 8.1 mph - 0.00 in Snow Light Snow
6:51 AM 21.9 °F 13.4 °F 17.1 °F 82% 29.53 in 7.0 mi WNW 6.9 mph - 0.00 in Snow Light Snow
7:51 AM 21.9 °F 15.7 °F 17.1 °F 82% 29.51 in 10.0 mi West 4.6 mph - 0.00 in   Overcast
8:51 AM 21.9 °F 15.7 °F 18.0 °F 85% 29.50 in 6.0 mi West 4.6 mph - 0.00 in Snow Light Snow
9:51 AM 24.1 °F 13.7 °F 18.0 °F 77% 29.49 in 8.0 mi WSW 10.4 mph - 0.00 in Snow Light Snow
10:51 AM 25.0 °F 18.1 °F 18.0 °F 75% 29.47 in 8.0 mi WSW 5.8 mph - 0.00 in   Overcast
11:38 AM 24.8 °F 20.5 °F 19.4 °F 80% 29.36 in 2.0 mi West 3.5 mph - 0.00 in Snow Light Snow
11:49 AM 24.8 °F 17.9 °F 19.4 °F 80% 29.35 in 1.5 mi WNW 5.8 mph - 0.00 in Snow Light Snow
11:51 AM 25.0 °F 18.1 °F 19.9 °F 81% 29.44 in 1.5 mi West 5.8 mph - 0.00 in Snow Light Snow
12:04 PM 26.6 °F 18.2 °F 19.4 °F 74% 29.34 in 1.8 mi West 8.1 mph - 0.00 in Snow Light Snow
12:14 PM 26.6 °F 18.2 °F 19.4 °F 74% 29.34 in 2.5 mi West 8.1 mph - 0.01 in Snow Light Snow
12:24 PM 26.6 °F 18.2 °F 19.4 °F 74% 29.33 in 3.0 mi West 8.1 mph - 0.01 in Snow Light Snow
12:51 PM 26.1 °F 16.8 °F 19.9 °F 78% 29.40 in 3.0 mi West 9.2 mph - 0.01 in Snow Light Snow
1:09 PM 26.6 °F 20.0 °F 19.4 °F 74% 29.30 in 2.0 mi WSW 5.8 mph 16.1 mph 0.00 in Snow Light Snow
1:23 PM 26.6 °F 17.5 °F 19.4 °F 74% 29.30 in 4.0 mi WSW 9.2 mph - 0.00 in Snow Light Snow
1:51 PM 26.1 °F 16.2 °F 19.9 °F 78% 29.38 in 8.0 mi WSW 10.4 mph 18.4 mph 0.00 in   Overcast
2:51 PM 27.0 °F 17.3 °F 19.0 °F 72% 29.38 in 10.0 mi WSW 10.4 mph 19.6 mph N/A   Overcast
3:51 PM 27.0 °F 18.7 °F 19.9 °F 75% 29.39 in 10.0 mi WSW 8.1 mph - N/A   Overcast
4:51 PM 26.1 °F 20.5 °F 19.9 °F 78% 29.40 in 2.0 mi WSW 4.6 mph - 0.00 in Snow Light Snow
4:54 PM 26.6 °F 20.0 °F 19.4 °F 74% 29.30 in 1.8 mi SW 5.8 mph - 0.00 in Snow Light Snow
5:06 PM 26.6 °F 20.0 °F 21.2 °F 80% 29.31 in 2.0 mi WSW 5.8 mph - 0.00 in Snow Light Snow
5:11 PM 26.6 °F 22.6 °F 21.2 °F 80% 29.31 in 3.0 mi WSW 3.5 mph - 0.00 in Snow Light Snow
5:23 PM 26.6 °F 21.2 °F 21.2 °F 80% 29.31 in 2.5 mi WSW 4.6 mph - 0.00 in Snow Light Snow
5:25 PM 26.6 °F 22.6 °F 21.2 °F 80% 29.31 in 3.0 mi WSW 3.5 mph - 0.00 in Snow Light Snow
5:49 PM 24.8 °F - 21.2 °F 86% 29.32 in 3.0 mi Calm Calm - 0.00 in Snow Light Snow
5:51 PM 25.0 °F - 21.9 °F 88% 29.42 in 3.0 mi Calm Calm - 0.00 in Snow Light Snow
6:14 PM 24.8 °F 20.5 °F 21.2 °F 86% 29.32 in 2.5 mi West 3.5 mph - 0.00 in Snow Light Snow
6:28 PM 24.8 °F - 21.2 °F 86% 29.32 in 1.8 mi Calm Calm - 0.00 in Snow Light Snow
6:38 PM 24.8 °F - 21.2 °F 86% 29.33 in 2.5 mi Calm Calm - 0.00 in Snow Light Snow
6:46 PM 24.8 °F - 21.2 °F 86% 29.33 in 3.0 mi Calm Calm - 0.00 in Snow Light Snow
6:51 PM 25.0 °F - 21.9 °F 88% 29.43 in 3.0 mi Calm Calm - 0.00 in Snow Light Snow
7:07 PM 24.8 °F 20.5 °F 21.2 °F 86% 29.34 in 2.5 mi West 3.5 mph - 0.00 in Snow Light Snow
7:14 PM 24.8 °F 20.5 °F 21.2 °F 86% 29.34 in 1.8 mi West 3.5 mph - 0.00 in Snow Light Snow
7:24 PM 24.8 °F 20.5 °F 21.2 °F 86% 29.34 in 1.2 mi WSW 3.5 mph - 0.01 in Snow Light Snow
7:51 PM 25.0 °F 20.7 °F 23.0 °F 92% 29.45 in 1.5 mi WSW 3.5 mph - 0.01 in Snow Light Snow
8:07 PM 24.8 °F 20.5 °F 23.0 °F 93% 29.35 in 2.0 mi West 3.5 mph - 0.01 in Snow Light Snow
8:18 PM 24.8 °F 16.9 °F 23.0 °F 93% 29.35 in 3.0 mi WNW 6.9 mph - 0.01 in Snow Light Snow
8:30 PM 24.8 °F 17.9 °F 23.0 °F 93% 29.35 in 2.5 mi West 5.8 mph - 0.01 in Snow Light Snow
8:42 PM 24.8 °F 16.1 °F 21.2 °F 86% 29.36 in 3.0 mi West 8.1 mph - 0.01 in Snow Light Snow
8:51 PM 24.8 °F 17.9 °F 21.2 °F 86% 29.36 in 2.0 mi West 5.8 mph - N/A Snow Light Snow
9:05 PM 24.8 °F 19.1 °F 21.2 °F 86% 29.36 in 3.0 mi West 4.6 mph - 0.00 in Snow Light Snow
9:40 PM 24.8 °F 17.9 °F 21.2 °F 86% 29.36 in 6.0 mi West 5.8 mph - 0.00 in Snow Light Snow
9:48 PM 24.8 °F 19.1 °F 21.2 °F 86% 29.35 in 9.0 mi West 4.6 mph - 0.00 in   Overcast
9:51 PM 25.0 °F 19.3 °F 21.9 °F 88% 29.46 in 9.0 mi WSW 4.6 mph - 0.00 in   Overcast
10:16 PM 24.8 °F 16.9 °F 21.2 °F 86% 29.35 in 7.0 mi WSW 6.9 mph - N/A   Overcast
10:51 PM 25.0 °F 17.1 °F 21.0 °F 85% 29.44 in 10.0 mi WSW 6.9 mph - N/A   Overcast
11:48 PM 24.8 °F 14.6 °F 21.2 °F 86% 29.33 in 9.0 mi WSW 10.4 mph - 0.00 in Snow Light Snow
11:51 PM 25.0 °F 15.5 °F 21.0 °F 85% 29.43 in 8.0 mi WSW 9.2 mph - 0.00 in Snow Light Snow